SKY MUSTER 2 (NBN1B)

Last updated on Tue Oct 08 2024 00:02:40 GMT+0000 (Coordinated Universal Time)

1 41794U 16060B 24281.39338243 -.00000233 00000+0 00000+0 0 9997 2 41794 0.0141 247.9925 0001440 293.5306 121.4535 1.00272317 29328
UTC large
Height (km)
Speed (km/s)
/
Latitude / Longitude
Inclination (degrees)
Orbital Period (minutes)
Azimuth
Elevation
Range (km)
Doppler Factor

Next 0 passes for location: London (51.5072 / 0.1276)

Sorry there are no passes over London.